Location: Iowa City
(41.6610°N, 91.5300°W)
Time: 19:36:35
(UTC-05:00)

ISS - Visible Passes

Search period start: 24 July 2017 00:00
Search period end: 03 August 2017 00:00
Orbit: 400 x 408 km, 51.6° (Epoch: 25 July)

Date Brightness Start Highest point End Pass type
(mag) Time Alt. Az. Time Alt. Az. Time Alt. Az.
24 Jul -0.8 00:09:30 10° WNW 00:11:45 17° NNW 00:14:00 10° NNE visible
24 Jul -0.6 01:47:09 10° NNW 01:49:11 15° N 01:51:13 10° NE visible
24 Jul -2.3 03:23:15 10° NW 03:26:20 38° NNE 03:29:25 10° E visible
24 Jul -2.9 04:59:54 10° WNW 05:02:43 27° SW 05:05:32 10° SSE visible
24 Jul -4.0 21:39:11 10° SW 21:42:25 78° SE 21:45:40 10° ENE visible
24 Jul -1.2 23:16:36 10° WNW 23:19:12 21° NNW 23:21:47 10° NE visible
25 Jul -0.6 00:54:42 10° NNW 00:56:34 14° N 00:58:26 10° NE visible
25 Jul -1.6 02:31:04 10° NW 02:33:52 25° NNE 02:36:40 10° E visible
25 Jul -3.8 04:07:44 13° WNW 04:10:30 52° SW 04:13:41 10° SE visible
25 Jul -1.8 22:23:46 10° W 22:26:41 29° NNW 22:29:36 10° NE visible
26 Jul -0.6 00:02:01 10° NW 00:03:56 14° N 00:05:50 10° NNE visible
26 Jul -0.7 01:38:52 10° NNW 01:39:29 13° NNW 01:39:29 13° NNW visible
26 Jul -2.7 21:31:05 10° WSW 21:34:14 46° NNW 21:37:23 10° NE visible
26 Jul -0.7 23:09:09 10° NW 23:11:18 16° N 23:13:27 10° NNE visible
27 Jul -0.7 00:46:36 10° NNW 00:48:17 16° N 00:48:17 16° N visible
27 Jul -1.0 22:16:13 10° WNW 22:18:41 20° NNW 22:21:10 10° NNE visible
27 Jul -0.8 23:54:11 10° NNW 23:56:05 14° N 23:57:20 12° NNE visible
28 Jul -1.5 21:23:18 10° W 21:26:07 26° NNW 21:28:56 10° NE visible
28 Jul -0.7 23:01:33 10° NW 23:03:25 14° N 23:05:17 10° NNE visible
29 Jul -0.7 00:38:12 10° NW 00:39:05 15° NNW 00:39:05 15° NNW visible
29 Jul -0.8 22:08:41 10° NW 22:10:44 15° N 22:12:47 10° NNE visible
29 Jul -1.1 23:45:56 10° NNW 23:48:10 17° NNE 23:48:16 17° NNE visible
30 Jul -1.0 21:15:43 10° WNW 21:18:04 18° NNW 21:20:26 10° NNE visible
30 Jul -0.9 22:53:32 10° NNW 22:55:29 15° N 22:57:26 10° NE visible
31 Jul -0.6 00:29:41 10° NW 00:30:05 13° NW 00:30:05 13° NW visible
31 Jul -0.9 22:00:55 10° NW 22:02:47 14° N 22:04:38 10° NE visible
31 Jul -1.3 23:37:25 10° NW 23:39:19 21° N 23:39:19 21° N visible
01 Aug -1.0 21:08:06 10° NW 21:10:03 15° N 21:12:01 10° NNE visible
01 Aug -1.4 22:45:07 10° NNW 22:47:28 18° NNE 22:48:34 16° NE visible
02 Aug -0.4 00:21:10 10° NW 00:21:11 10° NW 00:21:11 10° NW visible
02 Aug -1.1 21:52:44 10° NNW 21:54:46 15° N 21:56:48 10° NE visible
02 Aug -1.4 23:28:50 10° NW 23:30:27 24° NNW 23:30:27 24° NNW visible
